M I D A S
Marine Information and Data Acquisition System
Tripno 1573 of the Zeeleeuw from 2008-09-24 08:31:13 to 2008-09-24 13:55:11
Back to CruiseResearch ActivitiesStationsMapUnderway DataData graphs

EquipmentUnitsComment
TimeDGPSUTC
LatitudeDGPSDM.mWGS84
LongitudeDGPSDM.mWGS84
TemperatureSBE03/SBE38deg celciusITS90
ConductivitySBE21S/mITS90
SalinitySBE21 Practical Salinity Units
ChlorophylAChelsea fluorimeterg/lCalibrated in Aceton
Missing or incorrect values are displayed as -999
Sea surface data collected by the RV Zeeleeuw from 2008-09-24 08:31:13 to 2008-09-24 13:55:11
                                                                                    Next 1000 lines
Time Latitude Longitude Temperature Conductivity Salinity ChlorophylA
2008-09-24 08:31:30 51°13.623 2°56.046 -999 -999 -999 -999
2008-09-24 08:31:40 51°13.623 2°56.047 -999 -999 -999 -999
2008-09-24 08:31:50 51°13.623 2°56.047 -999 -999 -999 -999
2008-09-24 08:32:00 51°13.623 2°56.047 -999 -999 -999 -999
2008-09-24 08:32:10 51°13.624 2°56.047 -999 -999 -999 -999
2008-09-24 08:32:20 51°13.624 2°56.047 -999 -999 -999 -999
2008-09-24 08:32:30 51°13.624 2°56.047 -999 -999 -999 -999
2008-09-24 08:32:40 51°13.624 2°56.047 -999 -999 -999 -999
2008-09-24 08:32:50 51°13.624 2°56.047 -999 -999 -999 -999
2008-09-24 08:33:00 51°13.624 2°56.047 -999 -999 -999 -999
2008-09-24 08:33:10 51°13.624 2°56.047 -999 -999 -999 -999
2008-09-24 08:33:20 51°13.624 2°56.047 -999 -999 -999 -999
2008-09-24 08:33:30 51°13.624 2°56.048 -999 -999 -999 -999
2008-09-24 08:33:40 51°13.624 2°56.048 -999 -999 -999 -999
2008-09-24 08:33:50 51°13.624 2°56.048 -999 -999 -999 -999
2008-09-24 08:34:00 51°13.624 2°56.048 -999 -999 -999 -999
2008-09-24 08:34:10 51°13.623 2°56.047 -999 -999 -999 -999
2008-09-24 08:34:20 51°13.623 2°56.047 -999 -999 -999 -999
2008-09-24 08:34:30 51°13.624 2°56.046 -999 -999 -999 -999
2008-09-24 08:34:40 51°13.624 2°56.042 -999 -999 -999 -999
2008-09-24 08:34:50 51°13.625 2°56.038 -999 -999 -999 -999
2008-09-24 08:35:00 51°13.627 2°56.031 -999 -999 -999 -999
2008-09-24 08:35:10 51°13.63 2°56.022 -999 -999 -999 -999
2008-09-24 08:35:20 51°13.632 2°56.012 -999 -999 -999 -999
2008-09-24 08:35:30 51°13.635 2°56 -999 -999 -999 -999
2008-09-24 08:35:40 51°13.639 2°55.987 -999 -999 -999 -999
2008-09-24 08:35:50 51°13.642 2°55.973 -999 -999 -999 -999
2008-09-24 08:36:00 51°13.645 2°55.957 -999 -999 -999 -999
2008-09-24 08:36:10 51°13.649 2°55.942 -999 -999 -999 -999
2008-09-24 08:36:20 51°13.653 2°55.926 -999 -999 -999 -999
2008-09-24 08:36:30 51°13.658 2°55.91 -999 -999 -999 -999
2008-09-24 08:36:40 51°13.662 2°55.894 -999 -999 -999 -999
2008-09-24 08:36:50 51°13.667 2°55.878 -999 -999 -999 -999
2008-09-24 08:37:00 51°13.673 2°55.861 -999 -999 -999 -999
2008-09-24 08:37:10 51°13.679 2°55.845 -999 -999 -999 -999
2008-09-24 08:37:20 51°13.685 2°55.829 -999 -999 -999 -999
2008-09-24 08:37:30 51°13.691 2°55.813 -999 -999 -999 -999
2008-09-24 08:37:40 51°13.698 2°55.796 -999 -999 -999 -999
2008-09-24 08:37:50 51°13.705 2°55.78 -999 -999 -999 -999
2008-09-24 08:38:00 51°13.713 2°55.764 -999 -999 -999 -999
2008-09-24 08:38:10 51°13.721 2°55.75 -999 -999 -999 -999
2008-09-24 08:38:20 51°13.73 2°55.736 -999 -999 -999 -999
2008-09-24 08:38:30 51°13.74 2°55.723 -999 -999 -999 -999
2008-09-24 08:38:40 51°13.749 2°55.71 -999 -999 -999 -999
2008-09-24 08:38:50 51°13.759 2°55.699 -999 -999 -999 -999
2008-09-24 08:39:00 51°13.769 2°55.688 -999 -999 -999 -999
2008-09-24 08:39:10 51°13.78 2°55.678 -999 -999 -999 -999
2008-09-24 08:39:20 51°13.79 2°55.669 -999 -999 -999 -999
2008-09-24 08:39:30 51°13.801 2°55.661 -999 -999 -999 -999
2008-09-24 08:39:40 51°13.812 2°55.652 -999 -999 -999 -999
2008-09-24 08:39:50 51°13.824 2°55.644 -999 -999 -999 -999
2008-09-24 08:40:00 51°13.835 2°55.637 -999 -999 -999 -999
2008-09-24 08:40:10 51°13.846 2°55.63 -999 -999 -999 -999
2008-09-24 08:40:20 51°13.857 2°55.625 -999 -999 -999 -999
2008-09-24 08:40:30 51°13.869 2°55.62 -999 -999 -999 -999
2008-09-24 08:40:40 51°13.88 2°55.617 -999 -999 -999 -999
2008-09-24 08:40:50 51°13.891 2°55.616 -999 -999 -999 -999
2008-09-24 08:41:00 51°13.903 2°55.617 -999 -999 -999 -999
2008-09-24 08:41:10 51°13.913 2°55.62 -999 -999 -999 -999
2008-09-24 08:41:20 51°13.924 2°55.625 -999 -999 -999 -999
2008-09-24 08:41:30 51°13.933 2°55.631 -999 -999 -999 -999
2008-09-24 08:41:40 51°13.94 2°55.637 -999 -999 -999 -999
2008-09-24 08:41:50 51°13.946 2°55.643 -999 -999 -999 -999
2008-09-24 08:42:00 51°13.95 2°55.647 -999 -999 -999 -999
2008-09-24 08:42:10 51°13.952 2°55.649 -999 -999 -999 -999
2008-09-24 08:42:20 51°13.953 2°55.647 -999 -999 -999 -999
2008-09-24 08:42:30 51°13.953 2°55.642 -999 -999 -999 -999
2008-09-24 08:42:40 51°13.954 2°55.634 -999 -999 -999 -999
2008-09-24 08:42:50 51°13.956 2°55.625 -999 -999 -999 -999
2008-09-24 08:43:00 51°13.96 2°55.614 -999 -999 -999 -999
2008-09-24 08:43:10 51°13.966 2°55.603 -999 -999 -999 -999
2008-09-24 08:43:20 51°13.973 2°55.592 -999 -999 -999 -999
2008-09-24 08:43:30 51°13.982 2°55.58 -999 -999 -999 -999
2008-09-24 08:43:40 51°13.992 2°55.567 -999 -999 -999 -999
2008-09-24 08:43:50 51°14.003 2°55.554 -999 -999 -999 -999
2008-09-24 08:44:00 51°14.015 2°55.54 -999 -999 -999 -999
2008-09-24 08:44:10 51°14.028 2°55.525 -999 -999 -999 -999
2008-09-24 08:44:20 51°14.042 2°55.511 -999 -999 -999 -999
2008-09-24 08:44:30 51°14.056 2°55.495 -999 -999 -999 -999
2008-09-24 08:44:40 51°14.071 2°55.48 -999 -999 -999 -999
2008-09-24 08:44:50 51°14.085 2°55.465 -999 -999 -999 -999
2008-09-24 08:45:00 51°14.1 2°55.449 -999 -999 -999 -999
2008-09-24 08:45:10 51°14.116 2°55.434 -999 -999 -999 -999
2008-09-24 08:45:20 51°14.131 2°55.417 -999 -999 -999 -999
2008-09-24 08:45:30 51°14.146 2°55.4 -999 -999 -999 -999
2008-09-24 08:45:40 51°14.161 2°55.383 -999 -999 -999 -999
2008-09-24 08:45:50 51°14.176 2°55.365 -999 -999 -999 -999
2008-09-24 08:46:00 51°14.191 2°55.347 -999 -999 -999 -999
2008-09-24 08:46:10 51°14.207 2°55.327 -999 -999 -999 -999
2008-09-24 08:46:20 51°14.222 2°55.305 -999 -999 -999 -999
2008-09-24 08:46:30 51°14.237 2°55.28 -999 -999 -999 -999
2008-09-24 08:46:40 51°14.252 2°55.254 -999 -999 -999 -999
2008-09-24 08:46:50 51°14.267 2°55.227 -999 -999 -999 -999
2008-09-24 08:47:00 51°14.281 2°55.199 -999 -999 -999 -999
2008-09-24 08:47:10 51°14.296 2°55.169 -999 -999 -999 -999
2008-09-24 08:47:20 51°14.311 2°55.137 -999 -999 -999 -999
2008-09-24 08:47:30 51°14.327 2°55.105 -999 -999 -999 -999
2008-09-24 08:47:40 51°14.343 2°55.072 -999 -999 -999 -999
2008-09-24 08:47:50 51°14.358 2°55.038 -999 -999 -999 -999
2008-09-24 08:48:00 51°14.374 2°55.004 -999 -999 -999 -999
2008-09-24 08:48:10 51°14.388 2°54.969 -999 -999 -999 -999
2008-09-24 08:48:20 51°14.403 2°54.933 -999 -999 -999 -999
2008-09-24 08:48:30 51°14.418 2°54.897 -999 -999 -999 -999
2008-09-24 08:48:40 51°14.432 2°54.86 -999 -999 -999 -999
2008-09-24 08:48:50 51°14.446 2°54.822 -999 -999 -999 -999
2008-09-24 08:49:00 51°14.459 2°54.784 -999 -999 -999 -999
2008-09-24 08:49:10 51°14.47 2°54.744 -999 -999 -999 -999
2008-09-24 08:49:20 51°14.482 2°54.705 -999 -999 -999 -999
2008-09-24 08:49:30 51°14.497 2°54.667 -999 -999 -999 -999
2008-09-24 08:49:40 51°14.511 2°54.628 -999 -999 -999 -999
2008-09-24 08:49:50 51°14.526 2°54.584 -999 -999 -999 -999
2008-09-24 08:50:00 51°14.538 2°54.546 -999 -999 -999 -999
2008-09-24 08:50:10 51°14.552 2°54.505 -999 -999 -999 -999
2008-09-24 08:50:20 51°14.567 2°54.463 -999 -999 -999 -999
2008-09-24 08:50:30 51°14.583 2°54.42 -999 -999 -999 -999
2008-09-24 08:50:40 51°14.598 2°54.377 -999 -999 -999 -999
2008-09-24 08:50:50 51°14.612 2°54.334 -999 -999 -999 -999
2008-09-24 08:51:00 51°14.625 2°54.291 -999 -999 -999 -999
2008-09-24 08:51:10 51°14.639 2°54.249 -999 -999 -999 -999
2008-09-24 08:51:20 51°14.654 2°54.208 -999 -999 -999 -999
2008-09-24 08:51:30 51°14.668 2°54.166 -999 -999 -999 -999
2008-09-24 08:51:40 51°14.682 2°54.125 -999 -999 -999 -999
2008-09-24 08:51:50 51°14.695 2°54.085 -999 -999 -999 -999
2008-09-24 08:52:00 51°14.709 2°54.046 -999 -999 -999 -999
2008-09-24 08:52:10 51°14.723 2°54.008 -999 -999 -999 -999
2008-09-24 08:52:20 51°14.738 2°53.969 -999 -999 -999 -999
2008-09-24 08:52:30 51°14.751 2°53.931 -999 -999 -999 -999
2008-09-24 08:52:40 51°14.764 2°53.892 -999 -999 -999 -999
2008-09-24 08:52:50 51°14.778 2°53.855 -999 -999 -999 -999
2008-09-24 08:53:00 51°14.791 2°53.816 -999 -999 -999 -999
2008-09-24 08:53:10 51°14.804 2°53.776 -999 -999 -999 -999
2008-09-24 08:53:20 51°14.818 2°53.735 -999 -999 -999 -999
2008-09-24 08:53:30 51°14.831 2°53.692 -999 -999 -999 -999
2008-09-24 08:53:40 51°14.845 2°53.651 -999 -999 -999 -999
2008-09-24 08:53:50 51°14.86 2°53.609 -999 -999 -999 -999
2008-09-24 08:54:00 51°14.874 2°53.567 -999 -999 -999 -999
2008-09-24 08:54:10 51°14.888 2°53.525 -999 -999 -999 -999
2008-09-24 08:54:20 51°14.903 2°53.483 -999 -999 -999 -999
2008-09-24 08:54:30 51°14.918 2°53.44 -999 -999 -999 -999
2008-09-24 08:54:40 51°14.931 2°53.397 -999 -999 -999 -999
2008-09-24 08:54:50 51°14.942 2°53.354 -999 -999 -999 -999
2008-09-24 08:55:00 51°14.951 2°53.309 -999 -999 -999 -999
2008-09-24 08:55:10 51°14.957 2°53.262 -999 -999 -999 -999
2008-09-24 08:55:20 51°14.962 2°53.216 -999 -999 -999 -999
2008-09-24 08:55:30 51°14.964 2°53.169 -999 -999 -999 -999
2008-09-24 08:55:40 51°14.966 2°53.122 -999 -999 -999 -999
2008-09-24 08:55:50 51°14.966 2°53.075 -999 -999 -999 -999
2008-09-24 08:56:00 51°14.967 2°53.027 -999 -999 -999 -999
2008-09-24 08:56:10 51°14.965 2°52.98 -999 -999 -999 -999
2008-09-24 08:56:20 51°14.964 2°52.933 -999 -999 -999 -999
2008-09-24 08:56:30 51°14.964 2°52.885 -999 -999 -999 -999
2008-09-24 08:56:40 51°14.962 2°52.837 -999 -999 -999 -999
2008-09-24 08:56:50 51°14.961 2°52.79 -999 -999 -999 -999
2008-09-24 08:57:00 51°14.96 2°52.742 -999 -999 -999 -999
2008-09-24 08:57:10 51°14.958 2°52.695 -999 -999 -999 -999
2008-09-24 08:57:20 51°14.958 2°52.646 -999 -999 -999 -999
2008-09-24 08:57:30 51°14.958 2°52.598 -999 -999 -999 -999
2008-09-24 08:57:40 51°14.957 2°52.55 -999 -999 -999 -999
2008-09-24 08:57:50 51°14.956 2°52.502 -999 -999 -999 -999
2008-09-24 08:58:00 51°14.956 2°52.455 -999 -999 -999 -999
2008-09-24 08:58:10 51°14.954 2°52.407 -999 -999 -999 -999
2008-09-24 08:58:20 51°14.954 2°52.359 -999 -999 -999 -999
2008-09-24 08:58:30 51°14.953 2°52.312 -999 -999 -999 -999
2008-09-24 08:58:40 51°14.953 2°52.264 -999 -999 -999 -999
2008-09-24 08:58:50 51°14.954 2°52.216 -999 -999 -999 -999
2008-09-24 08:59:00 51°14.954 2°52.168 -999 -999 -999 -999
2008-09-24 08:59:10 51°14.954 2°52.121 -999 -999 -999 -999
2008-09-24 08:59:20 51°14.954 2°52.077 -999 -999 -999 -999
2008-09-24 08:59:30 51°14.953 2°52.024 -999 -999 -999 -999
2008-09-24 08:59:40 51°14.953 2°51.977 -999 -999 -999 -999
2008-09-24 08:59:50 51°14.952 2°51.929 -999 -999 -999 -999
2008-09-24 09:00:00 51°14.952 2°51.882 -999 -999 -999 -999
2008-09-24 09:00:10 51°14.952 2°51.834 -999 -999 -999 -999
2008-09-24 09:00:20 51°14.954 2°51.786 -999 -999 -999 -999
2008-09-24 09:00:30 51°14.957 2°51.739 -999 -999 -999 -999
2008-09-24 09:00:40 51°14.96 2°51.691 -999 -999 -999 -999
2008-09-24 09:00:50 51°14.964 2°51.643 -999 -999 -999 -999
2008-09-24 09:01:00 51°14.969 2°51.596 -999 -999 -999 -999
2008-09-24 09:01:10 51°14.975 2°51.548 -999 -999 -999 -999
2008-09-24 09:01:20 51°14.981 2°51.501 -999 -999 -999 -999
2008-09-24 09:01:30 51°14.989 2°51.455 -999 -999 -999 -999
2008-09-24 09:01:40 51°14.997 2°51.408 -999 -999 -999 -999
2008-09-24 09:01:50 51°15.006 2°51.362 -999 -999 -999 -999
2008-09-24 09:02:00 51°15.014 2°51.315 -999 -999 -999 -999
2008-09-24 09:02:10 51°15.022 2°51.269 -999 -999 -999 -999
2008-09-24 09:02:20 51°15.031 2°51.222 -999 -999 -999 -999
2008-09-24 09:02:30 51°15.04 2°51.176 -999 -999 -999 -999
2008-09-24 09:02:40 51°15.049 2°51.129 -999 -999 -999 -999
2008-09-24 09:02:50 51°15.058 2°51.083 -999 -999 -999 -999
2008-09-24 09:03:00 51°15.068 2°51.036 -999 -999 -999 -999
2008-09-24 09:03:10 51°15.077 2°50.99 -999 -999 -999 -999
2008-09-24 09:03:20 51°15.087 2°50.939 -999 -999 -999 -999
2008-09-24 09:03:30 51°15.095 2°50.897 -999 -999 -999 -999
2008-09-24 09:03:40 51°15.104 2°50.85 -999 -999 -999 -999
2008-09-24 09:03:50 51°15.113 2°50.803 -999 -999 -999 -999
2008-09-24 09:04:00 51°15.123 2°50.756 -999 -999 -999 -999
2008-09-24 09:04:10 51°15.132 2°50.709 -999 -999 -999 -999
2008-09-24 09:04:20 51°15.141 2°50.663 -999 -999 -999 -999
2008-09-24 09:04:30 51°15.15 2°50.615 -999 -999 -999 -999
2008-09-24 09:04:40 51°15.158 2°50.568 -999 -999 -999 -999
2008-09-24 09:04:50 51°15.166 2°50.521 -999 -999 -999 -999
2008-09-24 09:05:00 51°15.174 2°50.474 -999 -999 -999 -999
2008-09-24 09:05:10 51°15.183 2°50.426 -999 -999 -999 -999
2008-09-24 09:05:20 51°15.192 2°50.379 -999 -999 -999 -999
2008-09-24 09:05:30 51°15.199 2°50.332 -999 -999 -999 -999
2008-09-24 09:05:40 51°15.208 2°50.285 -999 -999 -999 -999
2008-09-24 09:05:50 51°15.217 2°50.237 -999 -999 -999 -999
2008-09-24 09:06:00 51°15.225 2°50.19 -999 -999 -999 -999
2008-09-24 09:06:10 51°15.233 2°50.143 -999 -999 -999 -999
2008-09-24 09:06:20 51°15.242 2°50.096 -999 -999 -999 -999
2008-09-24 09:06:30 51°15.252 2°50.049 -999 -999 -999 -999
2008-09-24 09:06:40 51°15.26 2°50.002 -999 -999 -999 -999
2008-09-24 09:06:50 51°15.269 2°49.955 -999 -999 -999 -999
2008-09-24 09:07:00 51°15.278 2°49.908 -999 -999 -999 -999
2008-09-24 09:07:10 51°15.287 2°49.862 -999 -999 -999 -999
2008-09-24 09:07:20 51°15.296 2°49.814 -999 -999 -999 -999
2008-09-24 09:07:30 51°15.304 2°49.767 -999 -999 -999 -999
2008-09-24 09:07:40 51°15.312 2°49.721 -999 -999 -999 -999
2008-09-24 09:07:50 51°15.32 2°49.674 -999 -999 -999 -999
2008-09-24 09:08:00 51°15.329 2°49.627 -999 -999 -999 -999
2008-09-24 09:08:10 51°15.338 2°49.581 -999 -999 -999 -999
2008-09-24 09:08:20 51°15.347 2°49.535 -999 -999 -999 -999
2008-09-24 09:08:30 51°15.355 2°49.488 -999 -999 -999 -999
2008-09-24 09:08:40 51°15.363 2°49.442 -999 -999 -999 -999
2008-09-24 09:08:50 51°15.371 2°49.395 -999 -999 -999 -999
2008-09-24 09:09:00 51°15.38 2°49.349 -999 -999 -999 -999
2008-09-24 09:09:10 51°15.389 2°49.303 -999 -999 -999 -999
2008-09-24 09:09:20 51°15.396 2°49.261 -999 -999 -999 -999
2008-09-24 09:09:30 51°15.406 2°49.211 -999 -999 -999 -999
2008-09-24 09:09:40 51°15.414 2°49.165 -999 -999 -999 -999
2008-09-24 09:09:50 51°15.423 2°49.119 -999 -999 -999 -999
2008-09-24 09:10:00 51°15.431 2°49.073 -999 -999 -999 -999
2008-09-24 09:10:10 51°15.439 2°49.027 -999 -999 -999 -999
2008-09-24 09:10:20 51°15.448 2°48.981 -999 -999 -999 -999
2008-09-24 09:10:30 51°15.456 2°48.934 -999 -999 -999 -999
2008-09-24 09:10:40 51°15.465 2°48.888 -999 -999 -999 -999
2008-09-24 09:10:50 51°15.473 2°48.841 -999 -999 -999 -999
2008-09-24 09:11:00 51°15.482 2°48.794 -999 -999 -999 -999
2008-09-24 09:11:10 51°15.49 2°48.747 -999 -999 -999 -999
2008-09-24 09:11:20 51°15.498 2°48.701 -999 -999 -999 -999
2008-09-24 09:11:30 51°15.507 2°48.655 -999 -999 -999 -999
2008-09-24 09:11:40 51°15.515 2°48.608 -999 -999 -999 -999
2008-09-24 09:11:50 51°15.523 2°48.562 -999 -999 -999 -999
2008-09-24 09:12:00 51°15.531 2°48.516 -999 -999 -999 -999
2008-09-24 09:12:10 51°15.538 2°48.469 -999 -999 -999 -999
2008-09-24 09:12:20 51°15.546 2°48.423 -999 -999 -999 -999
2008-09-24 09:12:30 51°15.555 2°48.376 -999 -999 -999 -999
2008-09-24 09:12:40 51°15.563 2°48.329 -999 -999 -999 -999
2008-09-24 09:12:50 51°15.571 2°48.283 -999 -999 -999 -999
2008-09-24 09:13:00 51°15.578 2°48.241 -999 -999 -999 -999
2008-09-24 09:13:10 51°15.586 2°48.195 -999 -999 -999 -999
2008-09-24 09:13:20 51°15.595 2°48.144 -999 -999 -999 -999
2008-09-24 09:13:30 51°15.604 2°48.097 -999 -999 -999 -999
2008-09-24 09:13:40 51°15.613 2°48.046 -999 -999 -999 -999
2008-09-24 09:13:50 51°15.62 2°48.004 -999 -999 -999 -999
2008-09-24 09:14:00 51°15.628 2°47.962 -999 -999 -999 -999
2008-09-24 09:14:10 51°15.637 2°47.91 -999 -999 -999 -999
2008-09-24 09:14:20 51°15.645 2°47.864 -999 -999 -999 -999
2008-09-24 09:14:30 51°15.654 2°47.817 -999 -999 -999 -999
2008-09-24 09:14:40 51°15.662 2°47.771 -999 -999 -999 -999
2008-09-24 09:14:50 51°15.671 2°47.724 -999 -999 -999 -999
2008-09-24 09:15:00 51°15.679 2°47.683 -999 -999 -999 -999
2008-09-24 09:15:10 51°15.688 2°47.631 -999 -999 -999 -999
2008-09-24 09:15:20 51°15.697 2°47.585 -999 -999 -999 -999
2008-09-24 09:15:30 51°15.704 2°47.538 -999 -999 -999 -999
2008-09-24 09:15:40 51°15.712 2°47.492 -999 -999 -999 -999
2008-09-24 09:15:50 51°15.72 2°47.446 -999 -999 -999 -999
2008-09-24 09:16:00 51°15.729 2°47.399 -999 -999 -999 -999
2008-09-24 09:16:10 51°15.737 2°47.353 -999 -999 -999 -999
2008-09-24 09:16:20 51°15.747 2°47.307 -999 -999 -999 -999
2008-09-24 09:16:30 51°15.757 2°47.262 -999 -999 -999 -999
2008-09-24 09:16:40 51°15.768 2°47.217 -999 -999 -999 -999
2008-09-24 09:16:50 51°15.779 2°47.171 -999 -999 -999 -999
2008-09-24 09:17:00 51°15.789 2°47.126 -999 -999 -999 -999
2008-09-24 09:17:10 51°15.8 2°47.081 -999 -999 -999 -999
2008-09-24 09:17:20 51°15.811 2°47.036 -999 -999 -999 -999
2008-09-24 09:17:30 51°15.822 2°46.991 -999 -999 -999 -999
2008-09-24 09:17:40 51°15.831 2°46.95 -999 -999 -999 -999
2008-09-24 09:17:50 51°15.844 2°46.901 -999 -999 -999 -999
2008-09-24 09:18:00 51°15.854 2°46.855 -999 -999 -999 -999
2008-09-24 09:18:10 51°15.865 2°46.811 -999 -999 -999 -999
2008-09-24 09:18:20 51°15.876 2°46.766 -999 -999 -999 -999
2008-09-24 09:18:30 51°15.886 2°46.721 -999 -999 -999 -999
2008-09-24 09:18:40 51°15.897 2°46.677 -999 -999 -999 -999
2008-09-24 09:18:50 51°15.907 2°46.637 -999 -999 -999 -999
2008-09-24 09:19:00 51°15.919 2°46.593 -999 -999 -999 -999
2008-09-24 09:19:10 51°15.931 2°46.549 -999 -999 -999 -999
2008-09-24 09:19:20 51°15.945 2°46.501 -999 -999 -999 -999
2008-09-24 09:19:30 51°15.956 2°46.462 -999 -999 -999 -999
2008-09-24 09:19:40 51°15.969 2°46.419 -999 -999 -999 -999
2008-09-24 09:19:50 51°15.981 2°46.375 -999 -999 -999 -999
2008-09-24 09:20:00 51°15.996 2°46.328 -999 -999 -999 -999
2008-09-24 09:20:10 51°16.009 2°46.285 -999 -999 -999 -999
2008-09-24 09:20:20 51°16.022 2°46.242 -999 -999 -999 -999
2008-09-24 09:20:30 51°16.034 2°46.197 -999 -999 -999 -999
2008-09-24 09:20:40 51°16.046 2°46.153 -999 -999 -999 -999
2008-09-24 09:20:50 51°16.059 2°46.11 -999 -999 -999 -999
2008-09-24 09:21:00 51°16.07 2°46.07 -999 -999 -999 -999
2008-09-24 09:21:10 51°16.083 2°46.022 -999 -999 -999 -999
2008-09-24 09:21:20 51°16.097 2°45.979 -999 -999 -999 -999
2008-09-24 09:21:30 51°16.111 2°45.937 -999 -999 -999 -999
2008-09-24 09:21:40 51°16.125 2°45.895 -999 -999 -999 -999
2008-09-24 09:21:50 51°16.14 2°45.853 -999 -999 -999 -999
2008-09-24 09:22:00 51°16.155 2°45.811 -999 -999 -999 -999
2008-09-24 09:22:10 51°16.171 2°45.771 -999 -999 -999 -999
2008-09-24 09:22:20 51°16.187 2°45.73 -999 -999 -999 -999
2008-09-24 09:22:30 51°16.203 2°45.688 -999 -999 -999 -999
2008-09-24 09:22:40 51°16.217 2°45.65 -999 -999 -999 -999
2008-09-24 09:22:50 51°16.236 2°45.604 -999 -999 -999 -999
2008-09-24 09:23:00 51°16.252 2°45.561 -999 -999 -999 -999
2008-09-24 09:23:10 51°16.269 2°45.52 -999 -999 -999 -999
2008-09-24 09:23:20 51°16.284 2°45.479 -999 -999 -999 -999
2008-09-24 09:23:30 51°16.3 2°45.438 -999 -999 -999 -999
2008-09-24 09:23:40 51°16.317 2°45.398 -999 -999 -999 -999
2008-09-24 09:23:50 51°16.335 2°45.358 -999 -999 -999 -999
2008-09-24 09:24:00 51°16.352 2°45.318 -999 -999 -999 -999
2008-09-24 09:24:10 51°16.37 2°45.279 -999 -999 -999 -999
2008-09-24 09:24:20 51°16.387 2°45.239 -999 -999 -999 -999
2008-09-24 09:24:30 51°16.405 2°45.199 -999 -999 -999 -999
2008-09-24 09:24:40 51°16.423 2°45.16 -999 -999 -999 -999
2008-09-24 09:24:50 51°16.44 2°45.12 -999 -999 -999 -999
2008-09-24 09:25:00 51°16.458 2°45.081 -999 -999 -999 -999
2008-09-24 09:25:10 51°16.475 2°45.04 -999 -999 -999 -999
2008-09-24 09:25:20 51°16.491 2°45.003 -999 -999 -999 -999
2008-09-24 09:25:30 51°16.511 2°44.958 -999 -999 -999 -999
2008-09-24 09:25:40 51°16.529 2°44.919 -999 -999 -999 -999
2008-09-24 09:25:50 51°16.545 2°44.882 -999 -999 -999 -999
2008-09-24 09:26:00 51°16.564 2°44.837 -999 -999 -999 -999
2008-09-24 09:26:10 51°16.58 2°44.8 -999 -999 -999 -999
2008-09-24 09:26:20 51°16.597 2°44.76 -999 -999 -999 -999
2008-09-24 09:26:30 51°16.615 2°44.715 -999 -999 -999 -999
2008-09-24 09:26:40 51°16.631 2°44.679 -999 -999 -999 -999
2008-09-24 09:26:50 51°16.649 2°44.639 -999 -999 -999 -999
2008-09-24 09:27:00 51°16.666 2°44.599 -999 -999 -999 -999
2008-09-24 09:27:10 51°16.682 2°44.558 -999 -999 -999 -999
2008-09-24 09:27:20 51°16.7 2°44.518 -999 -999 -999 -999
2008-09-24 09:27:30 51°16.717 2°44.478 -999 -999 -999 -999
2008-09-24 09:27:40 51°16.735 2°44.438 -999 -999 -999 -999
2008-09-24 09:27:50 51°16.753 2°44.397 -999 -999 -999 -999
2008-09-24 09:28:00 51°16.77 2°44.355 -999 -999 -999 -999
2008-09-24 09:28:10 51°16.788 2°44.314 -999 -999 -999 -999
2008-09-24 09:28:20 51°16.805 2°44.272 -999 -999 -999 -999
2008-09-24 09:28:30 51°16.823 2°44.231 -999 -999 -999 -999
2008-09-24 09:28:40 51°16.841 2°44.189 -999 -999 -999 -999
2008-09-24 09:28:50 51°16.857 2°44.147 -999 -999 -999 -999
2008-09-24 09:29:00 51°16.875 2°44.105 -999 -999 -999 -999
2008-09-24 09:29:10 51°16.893 2°44.064 -999 -999 -999 -999
2008-09-24 09:29:20 51°16.91 2°44.024 -999 -999 -999 -999
2008-09-24 09:29:30 51°16.927 2°43.982 -999 -999 -999 -999
2008-09-24 09:29:40 51°16.945 2°43.94 -999 -999 -999 -999
2008-09-24 09:29:50 51°16.962 2°43.899 -999 -999 -999 -999
2008-09-24 09:30:00 51°16.979 2°43.857 -999 -999 -999 -999
2008-09-24 09:30:10 51°16.997 2°43.817 -999 -999 -999 -999
2008-09-24 09:30:20 51°17.014 2°43.775 -999 -999 -999 -999
2008-09-24 09:30:30 51°17.031 2°43.734 -999 -999 -999 -999
2008-09-24 09:30:40 51°17.049 2°43.693 -999 -999 -999 -999
2008-09-24 09:30:50 51°17.068 2°43.652 -999 -999 -999 -999
2008-09-24 09:31:00 51°17.086 2°43.611 -999 -999 -999 -999
2008-09-24 09:31:10 51°17.103 2°43.569 -999 -999 -999 -999
2008-09-24 09:31:20 51°17.121 2°43.528 -999 -999 -999 -999
2008-09-24 09:31:30 51°17.138 2°43.486 -999 -999 -999 -999
2008-09-24 09:31:40 51°17.156 2°43.445 -999 -999 -999 -999
2008-09-24 09:31:50 51°17.173 2°43.403 -999 -999 -999 -999
2008-09-24 09:32:00 51°17.189 2°43.362 -999 -999 -999 -999
2008-09-24 09:32:10 51°17.207 2°43.323 -999 -999 -999 -999
2008-09-24 09:32:20 51°17.224 2°43.282 -999 -999 -999 -999
2008-09-24 09:32:30 51°17.241 2°43.241 -999 -999 -999 -999
2008-09-24 09:32:40 51°17.257 2°43.2 -999 -999 -999 -999
2008-09-24 09:32:50 51°17.274 2°43.159 -999 -999 -999 -999
2008-09-24 09:33:00 51°17.291 2°43.119 -999 -999 -999 -999
2008-09-24 09:33:10 51°17.308 2°43.078 -999 -999 -999 -999
2008-09-24 09:33:20 51°17.325 2°43.038 -999 -999 -999 -999
2008-09-24 09:33:30 51°17.342 2°42.999 -999 -999 -999 -999
2008-09-24 09:33:40 51°17.359 2°42.959 -999 -999 -999 -999
2008-09-24 09:33:50 51°17.376 2°42.918 -999 -999 -999 -999
2008-09-24 09:34:00 51°17.394 2°42.879 -999 -999 -999 -999
2008-09-24 09:34:10 51°17.41 2°42.838 -999 -999 -999 -999
2008-09-24 09:34:20 51°17.427 2°42.798 -999 -999 -999 -999
2008-09-24 09:34:30 51°17.444 2°42.757 -999 -999 -999 -999
2008-09-24 09:34:40 51°17.462 2°42.717 -999 -999 -999 -999
2008-09-24 09:34:50 51°17.48 2°42.677 -999 -999 -999 -999
2008-09-24 09:35:00 51°17.498 2°42.636 -999 -999 -999 -999
2008-09-24 09:35:10 51°17.515 2°42.596 -999 -999 -999 -999
2008-09-24 09:35:20 51°17.532 2°42.556 -999 -999 -999 -999
2008-09-24 09:35:30 51°17.55 2°42.516 -999 -999 -999 -999
2008-09-24 09:35:40 51°17.567 2°42.474 -999 -999 -999 -999
2008-09-24 09:35:50 51°17.585 2°42.434 -999 -999 -999 -999
2008-09-24 09:36:00 51°17.603 2°42.393 -999 -999 -999 -999
2008-09-24 09:36:10 51°17.62 2°42.352 -999 -999 -999 -999
2008-09-24 09:36:20 51°17.639 2°42.312 -999 -999 -999 -999
2008-09-24 09:36:30 51°17.657 2°42.271 -999 -999 -999 -999
2008-09-24 09:36:40 51°17.674 2°42.229 -999 -999 -999 -999
2008-09-24 09:36:50 51°17.692 2°42.188 -999 -999 -999 -999
2008-09-24 09:37:00 51°17.71 2°42.148 -999 -999 -999 -999
2008-09-24 09:37:10 51°17.728 2°42.107 -999 -999 -999 -999
2008-09-24 09:37:20 51°17.746 2°42.067 -999 -999 -999 -999
2008-09-24 09:37:30 51°17.763 2°42.026 -999 -999 -999 -999
2008-09-24 09:37:40 51°17.782 2°41.985 -999 -999 -999 -999
2008-09-24 09:37:50 51°17.8 2°41.945 -999 -999 -999 -999
2008-09-24 09:38:00 51°17.818 2°41.904 -999 -999 -999 -999
2008-09-24 09:38:10 51°17.836 2°41.864 -999 -999 -999 -999
2008-09-24 09:38:20 51°17.854 2°41.824 -999 -999 -999 -999
2008-09-24 09:38:30 51°17.872 2°41.784 -999 -999 -999 -999
2008-09-24 09:38:40 51°17.889 2°41.743 -999 -999 -999 -999
2008-09-24 09:38:50 51°17.907 2°41.702 -999 -999 -999 -999
2008-09-24 09:39:00 51°17.925 2°41.661 -999 -999 -999 -999
2008-09-24 09:39:10 51°17.942 2°41.621 -999 -999 -999 -999
2008-09-24 09:39:20 51°17.96 2°41.581 -999 -999 -999 -999
2008-09-24 09:39:30 51°17.978 2°41.541 -999 -999 -999 -999
2008-09-24 09:39:40 51°17.995 2°41.5 -999 -999 -999 -999
2008-09-24 09:39:50 51°18.013 2°41.46 -999 -999 -999 -999
2008-09-24 09:40:00 51°18.031 2°41.42 -999 -999 -999 -999
2008-09-24 09:40:10 51°18.048 2°41.379 -999 -999 -999 -999
2008-09-24 09:40:20 51°18.065 2°41.337 -999 -999 -999 -999
2008-09-24 09:40:30 51°18.083 2°41.296 -999 -999 -999 -999
2008-09-24 09:40:40 51°18.099 2°41.255 -999 -999 -999 -999
2008-09-24 09:40:50 51°18.116 2°41.213 -999 -999 -999 -999
2008-09-24 09:41:00 51°18.134 2°41.172 -999 -999 -999 -999
2008-09-24 09:41:10 51°18.151 2°41.131 -999 -999 -999 -999
2008-09-24 09:41:20 51°18.169 2°41.09 -999 -999 -999 -999
2008-09-24 09:41:30 51°18.186 2°41.049 -999 -999 -999 -999
2008-09-24 09:41:40 51°18.204 2°41.009 -999 -999 -999 -999
2008-09-24 09:41:50 51°18.222 2°40.968 -999 -999 -999 -999
2008-09-24 09:42:00 51°18.239 2°40.928 -999 -999 -999 -999
2008-09-24 09:42:10 51°18.256 2°40.889 -999 -999 -999 -999
2008-09-24 09:42:20 51°18.273 2°40.849 -999 -999 -999 -999
2008-09-24 09:42:30 51°18.29 2°40.81 -999 -999 -999 -999
2008-09-24 09:42:40 51°18.308 2°40.77 -999 -999 -999 -999
2008-09-24 09:42:50 51°18.325 2°40.73 -999 -999 -999 -999
2008-09-24 09:43:00 51°18.342 2°40.69 -999 -999 -999 -999
2008-09-24 09:43:10 51°18.359 2°40.649 -999 -999 -999 -999
2008-09-24 09:43:20 51°18.376 2°40.61 -999 -999 -999 -999
2008-09-24 09:43:30 51°18.393 2°40.571 -999 -999 -999 -999
2008-09-24 09:43:40 51°18.41 2°40.531 -999 -999 -999 -999
2008-09-24 09:43:50 51°18.427 2°40.492 -999 -999 -999 -999
2008-09-24 09:44:00 51°18.444 2°40.452 -999 -999 -999 -999
2008-09-24 09:44:10 51°18.462 2°40.412 -999 -999 -999 -999
2008-09-24 09:44:20 51°18.479 2°40.373 -999 -999 -999 -999
2008-09-24 09:44:30 51°18.496 2°40.333 -999 -999 -999 -999
2008-09-24 09:44:40 51°18.514 2°40.295 -999 -999 -999 -999
2008-09-24 09:44:50 51°18.532 2°40.257 -999 -999 -999 -999
2008-09-24 09:45:00 51°18.549 2°40.217 -999 -999 -999 -999
2008-09-24 09:45:10 51°18.567 2°40.176 -999 -999 -999 -999
2008-09-24 09:45:20 51°18.585 2°40.138 -999 -999 -999 -999
2008-09-24 09:45:30 51°18.602 2°40.097 -999 -999 -999 -999
2008-09-24 09:45:40 51°18.62 2°40.059 -999 -999 -999 -999
2008-09-24 09:45:50 51°18.637 2°40.02 -999 -999 -999 -999
2008-09-24 09:46:00 51°18.655 2°39.981 -999 -999 -999 -999
2008-09-24 09:46:10 51°18.673 2°39.942 -999 -999 -999 -999
2008-09-24 09:46:20 51°18.69 2°39.902 -999 -999 -999 -999
2008-09-24 09:46:30 51°18.708 2°39.863 -999 -999 -999 -999
2008-09-24 09:46:40 51°18.726 2°39.823 -999 -999 -999 -999
2008-09-24 09:46:50 51°18.743 2°39.783 -999 -999 -999 -999
2008-09-24 09:47:00 51°18.761 2°39.743 -999 -999 -999 -999
2008-09-24 09:47:10 51°18.78 2°39.703 -999 -999 -999 -999
2008-09-24 09:47:20 51°18.797 2°39.663 -999 -999 -999 -999
2008-09-24 09:47:30 51°18.816 2°39.624 -999 -999 -999 -999
2008-09-24 09:47:40 51°18.834 2°39.583 -999 -999 -999 -999
2008-09-24 09:47:50 51°18.852 2°39.543 -999 -999 -999 -999
2008-09-24 09:48:00 51°18.871 2°39.503 -999 -999 -999 -999
2008-09-24 09:48:10 51°18.889 2°39.463 -999 -999 -999 -999
2008-09-24 09:48:20 51°18.906 2°39.423 -999 -999 -999 -999
2008-09-24 09:48:30 51°18.924 2°39.383 -999 -999 -999 -999
2008-09-24 09:48:40 51°18.942 2°39.345 -999 -999 -999 -999
2008-09-24 09:48:50 51°18.959 2°39.306 -999 -999 -999 -999
2008-09-24 09:49:00 51°18.977 2°39.269 -999 -999 -999 -999
2008-09-24 09:49:10 51°18.994 2°39.232 -999 -999 -999 -999
2008-09-24 09:49:20 51°19.012 2°39.195 -999 -999 -999 -999
2008-09-24 09:49:30 51°19.029 2°39.157 -999 -999 -999 -999
2008-09-24 09:49:40 51°19.046 2°39.119 -999 -999 -999 -999
2008-09-24 09:49:50 51°19.063 2°39.082 -999 -999 -999 -999
2008-09-24 09:50:00 51°19.079 2°39.045 -999 -999 -999 -999
2008-09-24 09:50:10 51°19.094 2°39.009 -999 -999 -999 -999
2008-09-24 09:50:20 51°19.11 2°38.975 -999 -999 -999 -999
2008-09-24 09:50:30 51°19.124 2°38.943 -999 -999 -999 -999
2008-09-24 09:50:40 51°19.139 2°38.912 -999 -999 -999 -999
2008-09-24 09:50:50 51°19.152 2°38.881 -999 -999 -999 -999
2008-09-24 09:51:00 51°19.164 2°38.851 -999 -999 -999 -999
2008-09-24 09:51:10 51°19.177 2°38.822 -999 -999 -999 -999
2008-09-24 09:51:20 51°19.19 2°38.792 -999 -999 -999 -999
2008-09-24 09:51:30 51°19.203 2°38.763 -999 -999 -999 -999
2008-09-24 09:51:40 51°19.216 2°38.734 -999 -999 -999 -999
2008-09-24 09:51:50 51°19.228 2°38.705 -999 -999 -999 -999
2008-09-24 09:52:00 51°19.241 2°38.676 -999 -999 -999 -999
2008-09-24 09:52:10 51°19.253 2°38.647 -999 -999 -999 -999
2008-09-24 09:52:20 51°19.265 2°38.618 -999 -999 -999 -999
2008-09-24 09:52:30 51°19.278 2°38.589 -999 -999 -999 -999
2008-09-24 09:52:40 51°19.291 2°38.559 -999 -999 -999 -999
2008-09-24 09:52:50 51°19.303 2°38.53 -999 -999 -999 -999
2008-09-24 09:53:00 51°19.316 2°38.503 -999 -999 -999 -999
2008-09-24 09:53:10 51°19.33 2°38.474 -999 -999 -999 -999
2008-09-24 09:53:20 51°19.343 2°38.445 -999 -999 -999 -999
2008-09-24 09:53:30 51°19.356 2°38.416 -999 -999 -999 -999
2008-09-24 09:53:40 51°19.368 2°38.387 -999 -999 -999 -999
2008-09-24 09:53:50 51°19.382 2°38.359 -999 -999 -999 -999
2008-09-24 09:54:00 51°19.394 2°38.331 -999 -999 -999 -999
2008-09-24 09:54:10 51°19.407 2°38.303 -999 -999 -999 -999
2008-09-24 09:54:20 51°19.42 2°38.275 -999 -999 -999 -999
2008-09-24 09:54:30 51°19.433 2°38.246 -999 -999 -999 -999
2008-09-24 09:54:40 51°19.445 2°38.218 -999 -999 -999 -999
2008-09-24 09:54:50 51°19.457 2°38.189 -999 -999 -999 -999
2008-09-24 09:55:00 51°19.47 2°38.16 -999 -999 -999 -999
2008-09-24 09:55:10 51°19.482 2°38.132 -999 -999 -999 -999
2008-09-24 09:55:20 51°19.495 2°38.104 -999 -999 -999 -999
2008-09-24 09:55:30 51°19.508 2°38.075 -999 -999 -999 -999
2008-09-24 09:55:40 51°19.519 2°38.046 -999 -999 -999 -999
2008-09-24 09:55:50 51°19.532 2°38.018 -999 -999 -999 -999
2008-09-24 09:56:00 51°19.544 2°37.99 -999 -999 -999 -999
2008-09-24 09:56:10 51°19.557 2°37.962 -999 -999 -999 -999
2008-09-24 09:56:20 51°19.569 2°37.934 -999 -999 -999 -999
2008-09-24 09:56:30 51°19.58 2°37.905 -999 -999 -999 -999
2008-09-24 09:56:40 51°19.593 2°37.877 -999 -999 -999 -999
2008-09-24 09:56:50 51°19.605 2°37.85 -999 -999 -999 -999
2008-09-24 09:57:00 51°19.618 2°37.823 -999 -999 -999 -999
2008-09-24 09:57:10 51°19.631 2°37.795 -999 -999 -999 -999
2008-09-24 09:57:20 51°19.644 2°37.767 -999 -999 -999 -999
2008-09-24 09:57:30 51°19.657 2°37.74 -999 -999 -999 -999
2008-09-24 09:57:40 51°19.671 2°37.713 -999 -999 -999 -999
2008-09-24 09:57:50 51°19.684 2°37.685 -999 -999 -999 -999
2008-09-24 09:58:00 51°19.697 2°37.658 -999 -999 -999 -999
2008-09-24 09:58:10 51°19.711 2°37.63 -999 -999 -999 -999
2008-09-24 09:58:20 51°19.725 2°37.602 -999 -999 -999 -999
2008-09-24 09:58:30 51°19.738 2°37.575 -999 -999 -999 -999
2008-09-24 09:58:40 51°19.751 2°37.547 -999 -999 -999 -999
2008-09-24 09:58:50 51°19.765 2°37.52 -999 -999 -999 -999
2008-09-24 09:59:00 51°19.779 2°37.494 -999 -999 -999 -999
2008-09-24 09:59:10 51°19.791 2°37.466 -999 -999 -999 -999
2008-09-24 09:59:20 51°19.806 2°37.439 -999 -999 -999 -999
2008-09-24 09:59:30 51°19.819 2°37.412 -999 -999 -999 -999
2008-09-24 09:59:40 51°19.833 2°37.384 -999 -999 -999 -999
2008-09-24 09:59:50 51°19.847 2°37.357 -999 -999 -999 -999
2008-09-24 10:00:00 51°19.86 2°37.329 -999 -999 -999 -999
2008-09-24 10:00:10 51°19.874 2°37.301 -999 -999 -999 -999
2008-09-24 10:00:20 51°19.888 2°37.275 -999 -999 -999 -999
2008-09-24 10:00:30 51°19.9 2°37.249 -999 -999 -999 -999
2008-09-24 10:00:40 51°19.912 2°37.226 -999 -999 -999 -999
2008-09-24 10:00:50 51°19.923 2°37.205 -999 -999 -999 -999
2008-09-24 10:01:00 51°19.933 2°37.184 -999 -999 -999 -999
2008-09-24 10:01:10 51°19.942 2°37.167 -999 -999 -999 -999
2008-09-24 10:01:20 51°19.951 2°37.151 -999 -999 -999 -999
2008-09-24 10:01:30 51°19.96 2°37.139 -999 -999 -999 -999
2008-09-24 10:01:40 51°19.968 2°37.126 -999 -999 -999 -999
2008-09-24 10:01:50 51°19.976 2°37.116 -999 -999 -999 -999
2008-09-24 10:02:00 51°19.984 2°37.106 -999 -999 -999 -999
2008-09-24 10:02:10 51°19.991 2°37.096 -999 -999 -999 -999
2008-09-24 10:02:20 51°19.998 2°37.086 -999 -999 -999 -999
2008-09-24 10:02:30 51°20.004 2°37.079 -999 -999 -999 -999
2008-09-24 10:02:40 51°20.011 2°37.071 -999 -999 -999 -999
2008-09-24 10:02:50 51°20.017 2°37.063 -999 -999 -999 -999
2008-09-24 10:03:00 51°20.023 2°37.056 -999 -999 -999 -999
2008-09-24 10:03:10 51°20.029 2°37.049 -999 -999 -999 -999
2008-09-24 10:03:20 51°20.035 2°37.043 -999 -999 -999 -999
2008-09-24 10:03:30 51°20.041 2°37.037 -999 -999 -999 -999
2008-09-24 10:03:40 51°20.047 2°37.031 -999 -999 -999 -999
2008-09-24 10:03:50 51°20.052 2°37.025 -999 -999 -999 -999
2008-09-24 10:04:00 51°20.057 2°37.02 -999 -999 -999 -999
2008-09-24 10:04:10 51°20.062 2°37.015 -999 -999 -999 -999
2008-09-24 10:04:20 51°20.067 2°37.01 -999 -999 -999 -999
2008-09-24 10:04:30 51°20.071 2°37.005 -999 -999 -999 -999
2008-09-24 10:04:40 51°20.076 2°37.001 -999 -999 -999 -999
2008-09-24 10:04:50 51°20.08 2°36.995 -999 -999 -999 -999
2008-09-24 10:05:00 51°20.085 2°36.988 -999 -999 -999 -999
2008-09-24 10:05:10 51°20.089 2°36.979 -999 -999 -999 -999
2008-09-24 10:05:20 51°20.091 2°36.968 -999 -999 -999 -999
2008-09-24 10:05:30 51°20.093 2°36.956 -999 -999 -999 -999
2008-09-24 10:05:40 51°20.094 2°36.945 -999 -999 -999 -999
2008-09-24 10:05:50 51°20.093 2°36.935 -999 -999 -999 -999
2008-09-24 10:06:00 51°20.092 2°36.925 -999 -999 -999 -999
2008-09-24 10:06:10 51°20.092 2°36.915 -999 -999 -999 -999
2008-09-24 10:06:20 51°20.093 2°36.904 -999 -999 -999 -999
2008-09-24 10:06:30 51°20.093 2°36.895 -999 -999 -999 -999
2008-09-24 10:06:40 51°20.094 2°36.886 -999 -999 -999 -999
2008-09-24 10:06:50 51°20.096 2°36.88 -999 -999 -999 -999
2008-09-24 10:07:00 51°20.098 2°36.874 -999 -999 -999 -999
2008-09-24 10:07:10 51°20.099 2°36.869 -999 -999 -999 -999
2008-09-24 10:07:20 51°20.1 2°36.864 -999 -999 -999 -999
2008-09-24 10:07:30 51°20.101 2°36.858 -999 -999 -999 -999
2008-09-24 10:07:40 51°20.103 2°36.853 -999 -999 -999 -999
2008-09-24 10:07:50 51°20.104 2°36.848 -999 -999 -999 -999
2008-09-24 10:08:00 51°20.107 2°36.844 -999 -999 -999 -999
2008-09-24 10:08:10 51°20.109 2°36.839 -999 -999 -999 -999
2008-09-24 10:08:20 51°20.111 2°36.835 -999 -999 -999 -999
2008-09-24 10:08:30 51°20.113 2°36.831 -999 -999 -999 -999
2008-09-24 10:08:40 51°20.115 2°36.828 -999 -999 -999 -999
2008-09-24 10:08:50 51°20.117 2°36.825 -999 -999 -999 -999
2008-09-24 10:09:00 51°20.119 2°36.823 -999 -999 -999 -999
2008-09-24 10:09:10 51°20.121 2°36.821 -999 -999 -999 -999
2008-09-24 10:09:20 51°20.122 2°36.819 -999 -999 -999 -999
2008-09-24 10:09:30 51°20.124 2°36.818 -999 -999 -999 -999
2008-09-24 10:09:40 51°20.125 2°36.817 -999 -999 -999 -999
2008-09-24 10:09:50 51°20.127 2°36.815 -999 -999 -999 -999
2008-09-24 10:10:00 51°20.129 2°36.814 -999 -999 -999 -999
2008-09-24 10:10:10 51°20.131 2°36.814 -999 -999 -999 -999
2008-09-24 10:10:20 51°20.133 2°36.813 -999 -999 -999 -999
2008-09-24 10:10:30 51°20.134 2°36.812 -999 -999 -999 -999
2008-09-24 10:10:40 51°20.136 2°36.811 -999 -999 -999 -999
2008-09-24 10:10:50 51°20.138 2°36.81 -999 -999 -999 -999
2008-09-24 10:11:00 51°20.139 2°36.81 -999 -999 -999 -999
2008-09-24 10:11:10 51°20.141 2°36.81 -999 -999 -999 -999
2008-09-24 10:11:20 51°20.142 2°36.809 -999 -999 -999 -999
2008-09-24 10:11:30 51°20.144 2°36.809 -999 -999 -999 -999
2008-09-24 10:11:40 51°20.146 2°36.809 -999 -999 -999 -999
2008-09-24 10:11:50 51°20.147 2°36.809 -999 -999 -999 -999
2008-09-24 10:12:00 51°20.149 2°36.807 -999 -999 -999 -999
2008-09-24 10:12:10 51°20.153 2°36.806 -999 -999 -999 -999
2008-09-24 10:12:20 51°20.158 2°36.803 -999 -999 -999 -999
2008-09-24 10:12:30 51°20.165 2°36.801 -999 -999 -999 -999
2008-09-24 10:12:40 51°20.173 2°36.8 -999 -999 -999 -999
2008-09-24 10:12:50 51°20.182 2°36.802 -999 -999 -999 -999
2008-09-24 10:13:00 51°20.192 2°36.807 -999 -999 -999 -999
2008-09-24 10:13:10 51°20.202 2°36.815 -999 -999 -999 -999
2008-09-24 10:13:20 51°20.209 2°36.826 -999 -999 -999 -999
2008-09-24 10:13:30 51°20.215 2°36.839 -999 -999 -999 -999
2008-09-24 10:13:40 51°20.22 2°36.854 -999 -999 -999 -999
2008-09-24 10:13:50 51°20.221 2°36.87 -999 -999 -999 -999
2008-09-24 10:14:00 51°20.22 2°36.886 -999 -999 -999 -999
2008-09-24 10:14:10 51°20.217 2°36.902 -999 -999 -999 -999
2008-09-24 10:14:20 51°20.211 2°36.916 -999 -999 -999 -999
2008-09-24 10:14:30 51°20.203 2°36.931 -999 -999 -999 -999
2008-09-24 10:14:40 51°20.195 2°36.946 -999 -999 -999 -999
2008-09-24 10:14:50 51°20.186 2°36.962 -999 -999 -999 -999
2008-09-24 10:15:00 51°20.177 2°36.979 -999 -999 -999 -999
2008-09-24 10:15:10 51°20.167 2°36.996 -999 -999 -999 -999
2008-09-24 10:15:20 51°20.157 2°37.014 -999 -999 -999 -999
2008-09-24 10:15:30 51°20.147 2°37.032 -999 -999 -999 -999
2008-09-24 10:15:40 51°20.138 2°37.052 -999 -999 -999 -999
2008-09-24 10:15:50 51°20.128 2°37.07 -999 -999 -999 -999
2008-09-24 10:16:00 51°20.117 2°37.086 -999 -999 -999 -999
2008-09-24 10:16:10 51°20.106 2°37.097 -999 -999 -999 -999
2008-09-24 10:16:20 51°20.094 2°37.101 -999 -999 -999 -999
2008-09-24 10:16:30 51°20.083 2°37.099 -999 -999 -999 -999
2008-09-24 10:16:40 51°20.074 2°37.091 -999 -999 -999 -999
2008-09-24 10:16:50 51°20.066 2°37.079 -999 -999 -999 -999
2008-09-24 10:17:00 51°20.06 2°37.065 -999 -999 -999 -999
2008-09-24 10:17:10 51°20.055 2°37.048 -999 -999 -999 -999
2008-09-24 10:17:20 51°20.05 2°37.034 -999 -999 -999 -999
2008-09-24 10:17:30 51°20.046 2°37.019 -999 -999 -999 -999
2008-09-24 10:17:40 51°20.043 2°37.007 -999 -999 -999 -999
2008-09-24 10:17:50 51°20.04 2°36.996 -999 -999 -999 -999
2008-09-24 10:18:00 51°20.037 2°36.988 -999 -999 -999 -999
2008-09-24 10:18:10 51°20.036 2°36.981 -999 -999 -999 -999
2008-09-24 10:18:20 51°20.037 2°36.977 -999 -999 -999 -999
2008-09-24 10:18:30 51°20.038 2°36.974 -999 -999 -999 -999
2008-09-24 10:18:40 51°20.04 2°36.972 -999 -999 -999 -999
2008-09-24 10:18:50 51°20.04 2°36.969 -999 -999 -999 -999
2008-09-24 10:19:00 51°20.042 2°36.967 -999 -999 -999 -999
2008-09-24 10:19:10 51°20.044 2°36.964 -999 -999 -999 -999
2008-09-24 10:19:20 51°20.045 2°36.962 -999 -999 -999 -999
2008-09-24 10:19:30 51°20.047 2°36.959 -999 -999 -999 -999
2008-09-24 10:19:40 51°20.049 2°36.957 -999 -999 -999 -999
2008-09-24 10:19:50 51°20.051 2°36.955 -999 -999 -999 -999
2008-09-24 10:20:00 51°20.052 2°36.953 -999 -999 -999 -999
2008-09-24 10:20:10 51°20.054 2°36.951 -999 -999 -999 -999
2008-09-24 10:20:20 51°20.056 2°36.95 -999 -999 -999 -999
2008-09-24 10:20:30 51°20.058 2°36.948 -999 -999 -999 -999
2008-09-24 10:20:40 51°20.06 2°36.946 -999 -999 -999 -999
2008-09-24 10:20:50 51°20.062 2°36.946 -999 -999 -999 -999
2008-09-24 10:21:00 51°20.063 2°36.944 -999 -999 -999 -999
2008-09-24 10:21:10 51°20.065 2°36.942 -999 -999 -999 -999
2008-09-24 10:21:20 51°20.067 2°36.94 -999 -999 -999 -999
2008-09-24 10:21:30 51°20.069 2°36.937 -999 -999 -999 -999
2008-09-24 10:21:40 51°20.073 2°36.932 -999 -999 -999 -999
2008-09-24 10:21:50 51°20.076 2°36.926 -999 -999 -999 -999
2008-09-24 10:22:00 51°20.08 2°36.921 -999 -999 -999 -999
2008-09-24 10:22:10 51°20.082 2°36.915 -999 -999 -999 -999
2008-09-24 10:22:20 51°20.086 2°36.911 -999 -999 -999 -999
2008-09-24 10:22:30 51°20.089 2°36.907 -999 -999 -999 -999
2008-09-24 10:22:40 51°20.091 2°36.902 -999 -999 -999 -999
2008-09-24 10:22:50 51°20.094 2°36.898 -999 -999 -999 -999
2008-09-24 10:23:00 51°20.096 2°36.894 -999 -999 -999 -999
2008-09-24 10:23:10 51°20.099 2°36.892 -999 -999 -999 -999
2008-09-24 10:23:20 51°20.102 2°36.888 -999 -999 -999 -999
2008-09-24 10:23:30 51°20.105 2°36.883 -999 -999 -999 -999
2008-09-24 10:23:40 51°20.109 2°36.879 -999 -999 -999 -999
2008-09-24 10:23:50 51°20.112 2°36.876 -999 -999 -999 -999
2008-09-24 10:24:00 51°20.116 2°36.874 -999 -999 -999 -999
2008-09-24 10:24:10 51°20.119 2°36.872 -999 -999 -999 -999
2008-09-24 10:24:20 51°20.122 2°36.87 -999 -999 -999 -999
2008-09-24 10:24:30 51°20.125 2°36.868 -999 -999 -999 -999
2008-09-24 10:24:40 51°20.127 2°36.867 -999 -999 -999 -999
2008-09-24 10:24:50 51°20.13 2°36.865 -999 -999 -999 -999
2008-09-24 10:25:00 51°20.132 2°36.864 -999 -999 -999 -999
2008-09-24 10:25:10 51°20.133 2°36.862 -999 -999 -999 -999
2008-09-24 10:25:20 51°20.135 2°36.861 -999 -999 -999 -999
2008-09-24 10:25:30 51°20.137 2°36.86 -999 -999 -999 -999
2008-09-24 10:25:40 51°20.138 2°36.859 -999 -999 -999 -999
2008-09-24 10:25:50 51°20.14 2°36.858 -999 -999 -999 -999
2008-09-24 10:26:00 51°20.142 2°36.857 -999 -999 -999 -999
2008-09-24 10:26:10 51°20.143 2°36.856 -999 -999 -999 -999
2008-09-24 10:26:20 51°20.144 2°36.855 -999 -999 -999 -999
2008-09-24 10:26:30 51°20.145 2°36.854 -999 -999 -999 -999
2008-09-24 10:26:40 51°20.146 2°36.853 -999 -999 -999 -999
2008-09-24 10:26:50 51°20.147 2°36.853 -999 -999 -999 -999
2008-09-24 10:27:00 51°20.147 2°36.851 -999 -999 -999 -999
2008-09-24 10:27:10 51°20.148 2°36.851 -999 -999 -999 -999
2008-09-24 10:27:20 51°20.148 2°36.849 -999 -999 -999 -999
2008-09-24 10:27:30 51°20.149 2°36.85 -999 -999 -999 -999
2008-09-24 10:27:40 51°20.149 2°36.849 -999 -999 -999 -999
2008-09-24 10:27:50 51°20.15 2°36.848 -999 -999 -999 -999
2008-09-24 10:28:00 51°20.15 2°36.847 -999 -999 -999 -999
2008-09-24 10:28:10 51°20.151 2°36.846 -999 -999 -999 -999
2008-09-24 10:28:20 51°20.151 2°36.846 -999 -999 -999 -999
2008-09-24 10:28:30 51°20.151 2°36.844 -999 -999 -999 -999
2008-09-24 10:28:40 51°20.151 2°36.845 -999 -999 -999 -999
2008-09-24 10:28:50 51°20.152 2°36.845 -999 -999 -999 -999
2008-09-24 10:29:00 51°20.152 2°36.845 -999 -999 -999 -999
2008-09-24 10:29:10 51°20.152 2°36.843 -999 -999 -999 -999
2008-09-24 10:29:20 51°20.153 2°36.843 -999 -999 -999 -999
2008-09-24 10:29:30 51°20.153 2°36.843 -999 -999 -999 -999
2008-09-24 10:29:40 51°20.153 2°36.842 -999 -999 -999 -999
2008-09-24 10:29:50 51°20.153 2°36.842 -999 -999 -999 -999
2008-09-24 10:30:00 51°20.154 2°36.842 -999 -999 -999 -999
2008-09-24 10:30:10 51°20.154 2°36.842 -999 -999 -999 -999
2008-09-24 10:30:20 51°20.154 2°36.842 -999 -999 -999 -999
2008-09-24 10:30:30 51°20.154 2°36.842 -999 -999 -999 -999
2008-09-24 10:30:40 51°20.154 2°36.841 -999 -999 -999 -999
2008-09-24 10:30:50 51°20.154 2°36.84 -999 -999 -999 -999
2008-09-24 10:31:00 51°20.154 2°36.841 -999 -999 -999 -999
2008-09-24 10:31:10 51°20.154 2°36.841 -999 -999 -999 -999
2008-09-24 10:31:20 51°20.154 2°36.84 -999 -999 -999 -999
2008-09-24 10:31:30 51°20.154 2°36.841 -999 -999 -999 -999
2008-09-24 10:31:40 51°20.154 2°36.841 -999 -999 -999 -999
2008-09-24 10:31:50 51°20.154 2°36.84 -999 -999 -999 -999
2008-09-24 10:32:00 51°20.155 2°36.84 -999 -999 -999 -999
2008-09-24 10:32:10 51°20.155 2°36.84 -999 -999 -999 -999
2008-09-24 10:32:20 51°20.155 2°36.84 -999 -999 -999 -999
2008-09-24 10:32:30 51°20.155 2°36.84 -999 -999 -999 -999
2008-09-24 10:32:40 51°20.155 2°36.84 -999 -999 -999 -999
2008-09-24 10:32:50 51°20.155 2°36.84 -999 -999 -999 -999
2008-09-24 10:33:00 51°20.155 2°36.84 -999 -999 -999 -999
2008-09-24 10:33:10 51°20.155 2°36.84 -999 -999 -999 -999
2008-09-24 10:33:20 51°20.156 2°36.84 -999 -999 -999 -999
2008-09-24 10:33:30 51°20.156 2°36.84 -999 -999 -999 -999
2008-09-24 10:33:40 51°20.157 2°36.841 -999 -999 -999 -999
2008-09-24 10:33:50 51°20.158 2°36.841 -999 -999 -999 -999
2008-09-24 10:34:00 51°20.158 2°36.84 -999 -999 -999 -999
2008-09-24 10:34:10 51°20.158 2°36.84 -999 -999 -999 -999
2008-09-24 10:34:20 51°20.159 2°36.84 -999 -999 -999 -999
2008-09-24 10:34:30 51°20.159 2°36.84 -999 -999 -999 -999
2008-09-24 10:34:40 51°20.159 2°36.839 -999 -999 -999 -999
2008-09-24 10:34:50 51°20.159 2°36.837 -999 -999 -999 -999
2008-09-24 10:35:00 51°20.16 2°36.837 -999 -999 -999 -999
2008-09-24 10:35:10 51°20.161 2°36.837 -999 -999 -999 -999
2008-09-24 10:35:20 51°20.162 2°36.837 -999 -999 -999 -999
2008-09-24 10:35:30 51°20.162 2°36.835 -999 -999 -999 -999
2008-09-24 10:35:40 51°20.162 2°36.834 -999 -999 -999 -999
2008-09-24 10:35:50 51°20.162 2°36.833 -999 -999 -999 -999
2008-09-24 10:36:00 51°20.163 2°36.833 -999 -999 -999 -999
2008-09-24 10:36:10 51°20.163 2°36.832 -999 -999 -999 -999
2008-09-24 10:36:20 51°20.163 2°36.831 -999 -999 -999 -999
2008-09-24 10:36:30 51°20.164 2°36.831 -999 -999 -999 -999
2008-09-24 10:36:40 51°20.165 2°36.83 -999 -999 -999 -999
2008-09-24 10:36:50 51°20.165 2°36.828 -999 -999 -999 -999
2008-09-24 10:37:00 51°20.166 2°36.828 -999 -999 -999 -999
2008-09-24 10:37:10 51°20.166 2°36.827 -999 -999 -999 -999
2008-09-24 10:37:20 51°20.166 2°36.826 -999 -999 -999 -999
2008-09-24 10:37:30 51°20.167 2°36.825 -999 -999 -999 -999
2008-09-24 10:37:40 51°20.167 2°36.824 -999 -999 -999 -999
2008-09-24 10:37:50 51°20.168 2°36.823 -999 -999 -999 -999
2008-09-24 10:38:00 51°20.168 2°36.822 -999 -999 -999 -999
2008-09-24 10:38:10 51°20.168 2°36.821 -999 -999 -999 -999
2008-09-24 10:38:20 51°20.168 2°36.82 -999 -999 -999 -999
2008-09-24 10:38:30 51°20.168 2°36.819 -999 -999 -999 -999
2008-09-24 10:38:40 51°20.169 2°36.818 -999 -999 -999 -999
2008-09-24 10:38:50 51°20.169 2°36.817 -999 -999 -999 -999
2008-09-24 10:39:00 51°20.169 2°36.817 -999 -999 -999 -999
2008-09-24 10:39:10 51°20.169 2°36.816 -999 -999 -999 -999
2008-09-24 10:39:20 51°20.17 2°36.815 -999 -999 -999 -999
2008-09-24 10:39:30 51°20.17 2°36.814 -999 -999 -999 -999
2008-09-24 10:39:40 51°20.17 2°36.813 -999 -999 -999 -999
2008-09-24 10:39:50 51°20.17 2°36.812 -999 -999 -999 -999
2008-09-24 10:40:00 51°20.171 2°36.811 -999 -999 -999 -999
2008-09-24 10:40:10 51°20.171 2°36.81 -999 -999 -999 -999
2008-09-24 10:40:20 51°20.172 2°36.81 -999 -999 -999 -999
2008-09-24 10:40:30 51°20.172 2°36.808 -999 -999 -999 -999
2008-09-24 10:40:40 51°20.173 2°36.806 -999 -999 -999 -999
2008-09-24 10:40:50 51°20.176 2°36.804 -999 -999 -999 -999
2008-09-24 10:41:00 51°20.181 2°36.801 -999 -999 -999 -999
2008-09-24 10:41:10 51°20.186 2°36.798 -999 -999 -999 -999
2008-09-24 10:41:20 51°20.193 2°36.796 -999 -999 -999 -999
2008-09-24 10:41:30 51°20.199 2°36.796 -999 -999 -999 -999
2008-09-24 10:41:40 51°20.207 2°36.797 -999 -999 -999 -999
2008-09-24 10:41:50 51°20.215 2°36.799 -999 -999 -999 -999
2008-09-24 10:42:00 51°20.223 2°36.804 -999 -999 -999 -999
2008-09-24 10:42:10 51°20.229 2°36.81 -999 -999 -999 -999
2008-09-24 10:42:20 51°20.236 2°36.818 -999 -999 -999 -999
2008-09-24 10:42:30 51°20.242 2°36.828 -999 -999 -999 -999
2008-09-24 10:42:40 51°20.246 2°36.838 -999 -999 -999 -999
2008-09-24 10:42:50 51°20.25 2°36.849 -999 -999 -999 -999
2008-09-24 10:43:00 51°20.251 2°36.861 -999 -999 -999 -999
2008-09-24 10:43:10 51°20.25 2°36.873 -999 -999 -999 -999
2008-09-24 10:43:20 51°20.248 2°36.884 -999 -999 -999 -999
2008-09-24 10:43:30 51°20.244 2°36.893 -999 -999 -999 -999
2008-09-24 10:43:40 51°20.238 2°36.9 -999 -999 -999 -999
2008-09-24 10:43:50 51°20.233 2°36.904 -999 -999 -999 -999
2008-09-24 10:44:00 51°20.226 2°36.906 -999 -999 -999 -999
2008-09-24 10:44:10 51°20.219 2°36.905 -999 -999 -999 -999
2008-09-24 10:44:20 51°20.214 2°36.903 -999 -999 -999 -999
2008-09-24 10:44:30 51°20.209 2°36.901 -999 -999 -999 -999
2008-09-24 10:44:40 51°20.205 2°36.898 -999 -999 -999 -999
2008-09-24 10:44:50 51°20.201 2°36.896 -999 -999 -999 -999
2008-09-24 10:45:00 51°20.197 2°36.895 -999 -999 -999 -999
2008-09-24 10:45:10 51°20.193 2°36.894 -999 -999 -999 -999
2008-09-24 10:45:20 51°20.19 2°36.893 -999 -999 -999 -999
2008-09-24 10:45:30 51°20.187 2°36.893 -999 -999 -999 -999
2008-09-24 10:45:40 51°20.185 2°36.893 -999 -999 -999 -999
2008-09-24 10:45:50 51°20.183 2°36.893 -999 -999 -999 -999
2008-09-24 10:46:00 51°20.181 2°36.893 -999 -999 -999 -999
2008-09-24 10:46:10 51°20.179 2°36.893 -999 -999 -999 -999
2008-09-24 10:46:20 51°20.178 2°36.892 -999 -999 -999 -999
2008-09-24 10:46:30 51°20.177 2°36.892 -999 -999 -999 -999
2008-09-24 10:46:40 51°20.175 2°36.892 -999 -999 -999 -999
2008-09-24 10:46:50 51°20.174 2°36.892 -999 -999 -999 -999
2008-09-24 10:47:00 51°20.173 2°36.892 -999 -999 -999 -999
2008-09-24 10:47:10 51°20.173 2°36.892 -999 -999 -999 -999
2008-09-24 10:47:20 51°20.172 2°36.892 -999 -999 -999 -999
2008-09-24 10:47:30 51°20.172 2°36.892 -999 -999 -999 -999
2008-09-24 10:47:40 51°20.171 2°36.891 -999 -999 -999 -999
2008-09-24 10:47:50 51°20.17 2°36.891 -999 -999 -999 -999
2008-09-24 10:48:00 51°20.17 2°36.891 -999 -999 -999 -999
2008-09-24 10:48:10 51°20.171 2°36.891 -999 -999 -999 -999
2008-09-24 10:48:20 51°20.17 2°36.891 -999 -999 -999 -999
2008-09-24 10:48:30 51°20.169 2°36.89 -999 -999 -999 -999
2008-09-24 10:48:40 51°20.169 2°36.89 -999 -999 -999 -999
2008-09-24 10:48:50 51°20.169 2°36.89 -999 -999 -999 -999
2008-09-24 10:49:00 51°20.169 2°36.89 -999 -999 -999 -999
2008-09-24 10:49:10 51°20.169 2°36.889 -999 -999 -999 -999
2008-09-24 10:49:20 51°20.169 2°36.888 -999 -999 -999 -999
2008-09-24 10:49:30 51°20.168 2°36.887 -999 -999 -999 -999
2008-09-24 10:49:40 51°20.168 2°36.887 -999 -999 -999 -999
2008-09-24 10:49:50 51°20.168 2°36.886 -999 -999 -999 -999
2008-09-24 10:50:00 51°20.168 2°36.886 -999 -999 -999 -999
2008-09-24 10:50:10 51°20.168 2°36.884 -999 -999 -999 -999
2008-09-24 10:50:20 51°20.168 2°36.883 -999 -999 -999 -999
2008-09-24 10:50:30 51°20.168 2°36.883 -999 -999 -999 -999
2008-09-24 10:50:40 51°20.168 2°36.882 -999 -999 -999 -999
2008-09-24 10:50:50 51°20.168 2°36.88 -999 -999 -999 -999
2008-09-24 10:51:00 51°20.168 2°36.88 -999 -999 -999 -999
2008-09-24 10:51:10 51°20.168 2°36.878 -999 -999 -999 -999
2008-09-24 10:51:20 51°20.168 2°36.877 -999 -999 -999 -999
2008-09-24 10:51:30 51°20.168 2°36.876 -999 -999 -999 -999
2008-09-24 10:51:40 51°20.168 2°36.875 -999 -999 -999 -999
2008-09-24 10:51:50 51°20.168 2°36.873 -999 -999 -999 -999
2008-09-24 10:52:00 51°20.168 2°36.873 -999 -999 -999 -999
2008-09-24 10:52:10 51°20.168 2°36.872 -999 -999 -999 -999
2008-09-24 10:52:20 51°20.167 2°36.87 -999 -999 -999 -999
2008-09-24 10:52:30 51°20.167 2°36.869 -999 -999 -999 -999
2008-09-24 10:52:40 51°20.167 2°36.868 -999 -999 -999 -999
2008-09-24 10:52:50 51°20.167 2°36.866 -999 -999 -999 -999
2008-09-24 10:53:00 51°20.166 2°36.865 -999 -999 -999 -999
2008-09-24 10:53:10 51°20.166 2°36.863 -999 -999 -999 -999
2008-09-24 10:53:20 51°20.166 2°36.861 -999 -999 -999 -999
2008-09-24 10:53:30 51°20.166 2°36.86 -999 -999 -999 -999
2008-09-24 10:53:40 51°20.166 2°36.859 -999 -999 -999 -999
2008-09-24 10:53:50 51°20.165 2°36.858 -999 -999 -999 -999
2008-09-24 10:54:00 51°20.165 2°36.856 -999 -999 -999 -999
2008-09-24 10:54:10 51°20.165 2°36.855 -999 -999 -999 -999
2008-09-24 10:54:20 51°20.165 2°36.854 -999 -999 -999 -999
2008-09-24 10:54:30 51°20.165 2°36.853 -999 -999 -999 -999
2008-09-24 10:54:40 51°20.165 2°36.851 -999 -999 -999 -999
2008-09-24 10:54:50 51°20.165 2°36.85 -999 -999 -999 -999
2008-09-24 10:55:00 51°20.166 2°36.849 -999 -999 -999 -999
2008-09-24 10:55:10 51°20.166 2°36.848 -999 -999 -999 -999
2008-09-24 10:55:20 51°20.166 2°36.846 -999 -999 -999 -999
2008-09-24 10:55:30 51°20.166 2°36.844 -999 -999 -999 -999
2008-09-24 10:55:40 51°20.166 2°36.843 -999 -999 -999 -999
2008-09-24 10:55:50 51°20.166 2°36.841 -999 -999 -999 -999
2008-09-24 10:56:00 51°20.166 2°36.839 -999 -999 -999 -999
2008-09-24 10:56:10 51°20.166 2°36.838 -999 -999 -999 -999
2008-09-24 10:56:20 51°20.167 2°36.837 -999 -999 -999 -999
2008-09-24 10:56:30 51°20.166 2°36.835 -999 -999 -999 -999
2008-09-24 10:56:40 51°20.167 2°36.833 -999 -999 -999 -999
2008-09-24 10:56:50 51°20.167 2°36.832 -999 -999 -999 -999
2008-09-24 10:57:00 51°20.167 2°36.83 -999 -999 -999 -999
2008-09-24 10:57:10 51°20.167 2°36.828 -999 -999 -999 -999
2008-09-24 10:57:20 51°20.167 2°36.826 -999 -999 -999 -999
2008-09-24 10:57:30 51°20.168 2°36.825 -999 -999 -999 -999
2008-09-24 10:57:40 51°20.168 2°36.822 -999 -999 -999 -999
2008-09-24 10:57:50 51°20.168 2°36.822 -999 -999 -999 -999
2008-09-24 10:58:00 51°20.168 2°36.82 -999 -999 -999 -999
2008-09-24 10:58:10 51°20.169 2°36.818 -999 -999 -999 -999
2008-09-24 10:58:20 51°20.169 2°36.816 -999 -999 -999 -999
2008-09-24 10:58:30 51°20.169 2°36.814 -999 -999 -999 -999
2008-09-24 10:58:40 51°20.168 2°36.812 -999 -999 -999 -999
2008-09-24 10:58:50 51°20.168 2°36.811 -999 -999 -999 -999
2008-09-24 10:59:00 51°20.168 2°36.809 -999 -999 -999 -999
2008-09-24 10:59:10 51°20.168 2°36.808 -999 -999 -999 -999
2008-09-24 10:59:20 51°20.168 2°36.807 -999 -999 -999 -999
2008-09-24 10:59:30 51°20.168 2°36.806 -999 -999 -999 -999
2008-09-24 10:59:40 51°20.168 2°36.805 -999 -999 -999 -999
2008-09-24 10:59:50 51°20.168 2°36.804 -999 -999 -999 -999
2008-09-24 11:00:00 51°20.168 2°36.803 -999 -999 -999 -999
2008-09-24 11:00:10 51°20.168 2°36.802 -999 -999 -999 -999
2008-09-24 11:00:20 51°20.168 2°36.8 -999 -999 -999 -999
2008-09-24 11:00:30 51°20.168 2°36.799 -999 -999 -999 -999
2008-09-24 11:00:40 51°20.168 2°36.797 -999 -999 -999 -999
2008-09-24 11:00:50 51°20.167 2°36.796 -999 -999 -999 -999
2008-09-24 11:01:00 51°20.167 2°36.795 -999 -999 -999 -999
2008-09-24 11:01:10 51°20.167 2°36.793 -999 -999 -999 -999
2008-09-24 11:01:20 51°20.167 2°36.791 -999 -999 -999 -999
2008-09-24 11:01:30 51°20.167 2°36.79 -999 -999 -999 -999
2008-09-24 11:01:40 51°20.167 2°36.788 -999 -999 -999 -999
2008-09-24 11:01:50 51°20.167 2°36.786 -999 -999 -999 -999
2008-09-24 11:02:00 51°20.167 2°36.784 -999 -999 -999 -999
2008-09-24 11:02:10 51°20.167 2°36.783 -999 -999 -999 -999
2008-09-24 11:02:20 51°20.167 2°36.781 -999 -999 -999 -999
2008-09-24 11:02:30 51°20.167 2°36.779 -999 -999 -999 -999
2008-09-24 11:02:40 51°20.167 2°36.777 -999 -999 -999 -999
2008-09-24 11:02:50 51°20.168 2°36.775 -999 -999 -999 -999
2008-09-24 11:03:00 51°20.167 2°36.773 -999 -999 -999 -999
2008-09-24 11:03:10 51°20.168 2°36.772 -999 -999 -999 -999
2008-09-24 11:03:20 51°20.168 2°36.77 -999 -999 -999 -999
2008-09-24 11:03:30 51°20.168 2°36.768 -999 -999 -999 -999
2008-09-24 11:03:40 51°20.168 2°36.767 -999 -999 -999 -999
2008-09-24 11:03:50 51°20.168 2°36.765 -999 -999 -999 -999
2008-09-24 11:04:00 51°20.168 2°36.763 -999 -999 -999 -999
2008-09-24 11:04:10 51°20.168 2°36.762 -999 -999 -999 -999
2008-09-24 11:04:20 51°20.168 2°36.761 -999 -999 -999 -999
2008-09-24 11:04:30 51°20.168 2°36.758 -999 -999 -999 -999
2008-09-24 11:04:40 51°20.168 2°36.757 -999 -999 -999 -999
2008-09-24 11:04:50 51°20.167 2°36.756 -999 -999 -999 -999
2008-09-24 11:05:00 51°20.167 2°36.754 -999 -999 -999 -999
2008-09-24 11:05:10 51°20.167 2°36.753 -999 -999 -999 -999
2008-09-24 11:05:20 51°20.167 2°36.752 -999 -999 -999 -999
2008-09-24 11:05:30 51°20.167 2°36.75 -999 -999 -999 -999
2008-09-24 11:05:40 51°20.167 2°36.749 -999 -999 -999 -999
2008-09-24 11:05:50 51°20.167 2°36.747 -999 -999 -999 -999
2008-09-24 11:06:00 51°20.167 2°36.745 -999 -999 -999 -999
2008-09-24 11:06:10 51°20.167 2°36.744 -999 -999 -999 -999
2008-09-24 11:06:20 51°20.167 2°36.742 -999 -999 -999 -999
2008-09-24 11:06:30 51°20.167 2°36.741 -999 -999 -999 -999
2008-09-24 11:06:40 51°20.168 2°36.739 -999 -999 -999 -999
2008-09-24 11:06:50 51°20.168 2°36.737 -999 -999 -999 -999
2008-09-24 11:07:00 51°20.167 2°36.735 -999 -999 -999 -999
2008-09-24 11:07:10 51°20.167 2°36.733 -999 -999 -999 -999
2008-09-24 11:07:20 51°20.167 2°36.732 -999 -999 -999 -999
2008-09-24 11:07:30 51°20.167 2°36.731 -999 -999 -999 -999
2008-09-24 11:07:40 51°20.168 2°36.729 -999 -999 -999 -999
2008-09-24 11:07:50 51°20.168 2°36.728 -999 -999 -999 -999
2008-09-24 11:08:00 51°20.168 2°36.727 -999 -999 -999 -999
2008-09-24 11:08:10 51°20.168 2°36.726 -999 -999 -999 -999
2008-09-24 11:08:20 51°20.167 2°36.725 -999 -999 -999 -999
2008-09-24 11:08:30 51°20.167 2°36.723 -999 -999 -999 -999
2008-09-24 11:08:40 51°20.167 2°36.722 -999 -999 -999 -999
2008-09-24 11:08:50 51°20.168 2°36.721 -999 -999 -999 -999
2008-09-24 11:09:00 51°20.167 2°36.718 -999 -999 -999 -999
2008-09-24 11:09:10 51°20.168 2°36.717 -999 -999 -999 -999
2008-09-24 11:09:20 51°20.167 2°36.716 -999 -999 -999 -999
2008-09-24 11:09:30 51°20.167 2°36.714 -999 -999 -999 -999
2008-09-24 11:09:40 51°20.167 2°36.712 -999 -999 -999 -999
2008-09-24 11:09:50 51°20.167 2°36.711 -999 -999 -999 -999
2008-09-24 11:10:00 51°20.166 2°36.708 -999 -999 -999 -999
2008-09-24 11:10:10 51°20.166 2°36.707 -999 -999 -999 -999
2008-09-24 11:10:20 51°20.166 2°36.704 -999 -999 -999 -999
2008-09-24 11:10:30 51°20.166 2°36.702 -999 -999 -999 -999
2008-09-24 11:10:40 51°20.166 2°36.7 -999 -999 -999 -999
2008-09-24 11:10:50 51°20.167 2°36.699 -999 -999 -999 -999
2008-09-24 11:11:00 51°20.167 2°36.697 -999 -999 -999 -999
2008-09-24 11:11:10 51°20.167 2°36.695 -999 -999 -999 -999
2008-09-24 11:11:20 51°20.167 2°36.693 -999 -999 -999 -999
2008-09-24 11:11:30 51°20.167 2°36.691 -999 -999 -999 -999
2008-09-24 11:11:40 51°20.168 2°36.689 -999 -999 -999 -999
2008-09-24 11:11:50 51°20.168 2°36.687 -999 -999 -999 -999
2008-09-24 11:12:00 51°20.168 2°36.684 -999 -999 -999 -999
2008-09-24 11:12:10 51°20.168 2°36.683 -999 -999 -999 -999
2008-09-24 11:12:20 51°20.169 2°36.68 -999 -999 -999 -999
2008-09-24 11:12:30 51°20.169 2°36.678 -999 -999 -999 -999
2008-09-24 11:12:40 51°20.169 2°36.676 -999 -999 -999 -999
2008-09-24 11:12:50 51°20.169 2°36.674 -999 -999 -999 -999
2008-09-24 11:13:00 51°20.17 2°36.671 -999 -999 -999 -999
2008-09-24 11:13:10 51°20.17 2°36.669 -999 -999 -999 -999
2008-09-24 11:13:20 51°20.17 2°36.667 -999 -999 -999 -999
2008-09-24 11:13:30 51°20.171 2°36.665 -999 -999 -999 -999
2008-09-24 11:13:40 51°20.171 2°36.662 -999 -999 -999 -999
2008-09-24 11:13:50 51°20.171 2°36.66 -999 -999 -999 -999
2008-09-24 11:14:00 51°20.171 2°36.658 -999 -999 -999 -999
2008-09-24 11:14:10 51°20.172 2°36.656 -999 -999 -999 -999
2008-09-24 11:14:20 51°20.172 2°36.655 -999 -999 -999 -999
2008-09-24 11:14:30 51°20.172 2°36.652 -999 -999 -999 -999
2008-09-24 11:14:40 51°20.172 2°36.65 -999 -999 -999 -999
2008-09-24 11:14:50 51°20.172 2°36.648 -999 -999 -999 -999
2008-09-24 11:15:00 51°20.172 2°36.646 -999 -999 -999 -999
2008-09-24 11:15:10 51°20.173 2°36.645 -999 -999 -999 -999
2008-09-24 11:15:20 51°20.173 2°36.642 -999 -999 -999 -999
2008-09-24 11:15:30 51°20.173 2°36.64 -999 -999 -999 -999
2008-09-24 11:15:40 51°20.173 2°36.638 -999 -999 -999 -999
2008-09-24 11:15:50 51°20.173 2°36.636 -999 -999 -999 -999
2008-09-24 11:16:00 51°20.173 2°36.634 -999 -999 -999 -999
2008-09-24 11:16:10 51°20.173 2°36.632 -999 -999 -999 -999
2008-09-24 11:16:20 51°20.172 2°36.629 -999 -999 -999 -999
2008-09-24 11:16:30 51°20.172 2°36.628 -999 -999 -999 -999
2008-09-24 11:16:40 51°20.172 2°36.625 -999 -999 -999 -999
2008-09-24 11:16:50 51°20.172 2°36.624 -999 -999 -999 -999
2008-09-24 11:17:00 51°20.172 2°36.623 -999 -999 -999 -999
2008-09-24 11:17:10 51°20.172 2°36.621 -999 -999 -999 -999
2008-09-24 11:17:20 51°20.172 2°36.619 -999 -999 -999 -999
2008-09-24 11:17:30 51°20.172 2°36.618 -999 -999 -999 -999
2008-09-24 11:17:40 51°20.171 2°36.615 -999 -999 -999 -999
2008-09-24 11:17:50 51°20.171 2°36.613 -999 -999 -999 -999